Regional Weather Roundup
Issued by NWS

Home | Current Version | Previous Version | Text Only | Print | Product List | Glossary On
Versions: 1 2 3 4 5 6 7 8 9 10 11 12 13 14 15 16 17 18 19 20 21 22 23 24 25 26 27 28 29 30 31 32 33 34 35 36 37 38 39 40 41 42 43 44 45 46 47 48 49 50
000
ASMX46 KSGX 261710
RWRMX

MEXICAN WEATHER ROUNDUP
NATIONAL WEATHER SERVICE SAN DIEGO CA
900 AM PST FRI DEC 26 2014

BAJA CALIFORNIA

CITY           SKY/WX    TMP DP  RH WIND       PRES   REMARKS
ENSENADA NW      N/A     58  32  38 N26       30.03R
LA PAZ         MOSUNNY   73  57  56 CALM      30.02
LORETO         CLOUDY    70  55  60 CALM      29.95S
MEXICALI       SUNNY     52  16  24 W7        30.11
S.J. DEL CABO  PTSUNNY   70  57  64 CALM      30.03R
TIJUANA        SUNNY     55  12  18 E14       30.08R

NORTHWESTERN MEXICO

CITY           SKY/WX    TMP DP  RH WIND       PRES   REMARKS
CHIHUAHUA      SUNNY     61  21  21 S15G28    29.98
CULIACAN       MOSUNNY   73  59  60 CALM      30.02
GUAYMAS        CLOUDY    66  55  68 CALM      29.95
HERMOSILLO     MOSUNNY   64  50  59 CALM      30.01
JUAREZ         LGT SNOW  34  34 100 S6        29.95  VSB 1   WCI  29
LOS MOCHIS     MOSUNNY   70  57  64 SE9       30.02S
OBREGON        MOSUNNY   68  57  68 S8        29.97

NORTHEASTERN MEXICO

CITY           SKY/WX    TMP DP  RH WIND       PRES   REMARKS
MATAMOROS      PTSUNNY   72  66  83 SE12G23   29.99
MONCLOVA       PTSUNNY   55  37  50 CALM      29.93R
MONTERREY      MOSUNNY   68  41  37 W5        29.93S
NUEVO LAREDO   MOSUNNY   61  55  82 SE7       29.94
PIEDRAS NEGRAS FOG       52  45  76 CALM      29.97R VSB 1
REYNOSA        MOSUNNY   70  55  60 S12G23    29.94
SALTILLO       PTSUNNY   70  43  37 SW13      30.11R
TORREON        MOSUNNY   68  41  37 CALM      30.04S
VICTORIA       PTSUNNY   70  52  52 S7        29.95

WESTERN MEXICO

CITY           SKY/WX    TMP DP  RH WIND       PRES   REMARKS
AGUASCALIENTES MOSUNNY   55  45  67 S9        30.30
COLIMA         PTSUNNY   75  63  64 CALM      30.09S
DURANGO        MOSUNNY   59  37  44 SW18      30.19R
GUADALAJARA    PTSUNNY   63  50  63 CALM      30.22
MANZANILLO     PTSUNNY   79  70  73 NW6       29.91F
MAZATLAN       MOSUNNY   73  61  64 NE8       29.99S
PTO. VALLARTA  PTSUNNY   75  63  64 N3        29.98F
TEPIC          PTSUNNY   70  54  56 W2        30.10F
URUAPAN        PTSUNNY   66  54  63 CALM      30.24S
ZACATECAS      MOSUNNY   57  37  47 SW23G35   30.24F

CENTRAL MEXICO

CITY           SKY/WX    TMP DP  RH WIND       PRES   REMARKS
CUERNAVACA     PTSUNNY   70  54  56 SW3       30.22S
LEON           PTSUNNY   63  46  55 W9        30.34S
MEXICO CITY    PTSUNNY   64  45  48 S9        30.34F
MORELIA        CLOUDY    57  48  72 CALM      30.29
POZA RICA      PTSUNNY   68  61  77 CALM      30.07F
PUEBLA         PTSUNNY   63  48  59 E3        30.36F
QUERETARO      CLOUDY    59  46  63 CALM      30.34S
S. LUIS POTOSI PTSUNNY   63  41  45 SW17      30.23F
TAMPICO        PTSUNNY   68  55  64 SW5       30.02F
TOLUCA         PTSUNNY   59  43  55 S15       30.42R
VERACRUZ       PTSUNNY   75  61  60 SW8       30.04F

SOUTHERN MEXICO

CITY           SKY/WX    TMP DP  RH WIND       PRES   REMARKS
ACAPULCO       MOSUNNY   86  66  51 N3        29.92F
B. DE HUATULCO CLOUDY    82  70  65 CALM      29.96
MINATITLAN     CLOUDY    73  66  78 NE12      30.01
OAXACA         CLOUDY    68  52  56 E3        30.27F
PTO. ESCONDIDO MOSUNNY   84  72  65 CALM      30.07S
TAPACHULA      SUNNY     90  72  55 CALM      29.91F HX  96
TUX. GUTIERREZ MOSUNNY   75  59  57 SW5       30.04F
VILLAHERMOSA   PTSUNNY   75  70  83 NE8       30.04F
ZIHUATANEJO    PTSUNNY   86  72  62 CALM      29.93S

YUCATAN PENINSULA

CITY           SKY/WX    TMP DP  RH WIND       PRES   REMARKS
CAMPECHE       PTSUNNY   81  73  78 E12       30.02F
CANCUN         PTSUNNY   82  73  74 E18       30.10R
CHETUMAL       PTSUNNY   79  68  69 CALM      30.05F
C. DEL CARMEN  PTSUNNY   77  68  73 E10       30.03
COZUMEL        PTSUNNY   77  73  88 E12       30.10S
MERIDA         PTSUNNY   79  73  83 E10       30.07F

$$



USA.gov is the U.S. government's official web portal to all federal, state and local government web resources and services.